Overview Statistics Trail Chart Weather Telemetry Raw packets
 

This is the latest recevied weather packets stored in our database for station/object N0BII-7. If no packets are shown the sender has not sent any weather packets the latest 10 day(s).

<< 1 2 3 4 5 6 >>
Time Temp. Humidity Pressure Rain* Wind** Luminosity Snow
1787721949 33.33° C 61% 847.1 hPa - - - -
1787721649 33.33° C 65% 847.1 hPa - - - -
1787721349 33.33° C 62% 847.2 hPa - - - -
1787720749 32.22° C 66% 849 hPa - - - -
1787720449 30° C 68% 848.8 hPa - - - -
1787720148 30° C 68% 849 hPa - - - -
1787719848 28.33° C 74% 848 hPa - - - -
1787650902 25° C 66% 847.1 hPa - - - -
1787650602 25° C 66% 847.2 hPa - - - -
1787650302 25.56° C 65% 847.1 hPa - - - -
1787650002 25° C 66% 847.2 hPa - - - -
1787649702 25° C 66% 847.1 hPa - - - -
1787649402 25° C 66% 847.3 hPa - - - -
1787649102 25° C 66% 847.1 hPa - - - -
1787648502 25° C 66% 847.2 hPa - - - -
1787648202 25° C 65% 847.1 hPa - - - -
1787647902 25° C 66% 847.1 hPa - - - -
1787647602 25° C 66% 847.3 hPa - - - -
1787647302 25° C 65% 847.3 hPa - - - -
1787647002 25° C 65% 847.2 hPa - - - -
1787646702 25.56° C 65% 847 hPa - - - -
1787646402 25.56° C 65% 847.3 hPa - - - -
1787646102 25.56° C 65% 847.4 hPa - - - -
1787645802 26.11° C 64% 847.2 hPa - - - -
1787645502 26.11° C 64% 847.4 hPa - - - -

* Rain since midnight (hover to see other rain measurements)
** Current wind speed in m/s (hover to see current wind gust speed)